Погода в Мотобу

Япония     26°37′35″N   127°53′44″E
темп.,
°C
ветер,
м/с
пор.,
м/с
влажн.,
%
обл.,
%
осадки,
мм/ч
давл.,
гПа
погр.,
м
12 апреля, пн
пн1200:00+20в810685 0.0 1023991
03:00+20вюв8106743 0.0 1021972
06:00+20вюв810704 0.0 10211034
09:00+22вюв896811 0.0 10211168
12:00+23юв686962 0.0 10201031
15:00+23юв687232 0.1 1017574
18:00+22юв58800 0.3 1017516
21:00+22юв69881 0.5 1018538
13 апреля, вт
вт1300:00+21юв69875 0.1 1018589
03:00+21ююв58891 0.2 1016440
06:00+21ююв479110 0.1 1016280
09:00+23ююз357939 0.1 1016226
12:00+23з567714 0.0 1015417
15:00+23зсз467629 0.1 1014533
18:00+23сз55857 0.0 1014519
21:00+21с568991 0.1 1015472
14 апреля, ср
ср1400:00+21с5586100 0.1 1016510
03:00+21с458392 0.1 1014567
06:00+20ссв5579100 0.1 1015630
09:00+20с5578100 0.1 1016721
12:00+20ссв778092 0.1 1016757
15:00+20с7876100 0.2 1015933
18:00+20ссв91076100 0.2 10161040
21:00+20ссв896846 0.2 10171009
15 апреля, чт
чт1500:00+19ссв776999 0.0 1017978
03:00+19ссв6664100 0.0 10161043
06:00+19ссв5564100 0.0 1016890
09:00+19ссв446147 0.0 1017975
12:00+20св445959 0.0 1016959
15:00+20св44606 0.0 1015769
18:00+20св346119 0.0 1016702
21:00+20всв4467100 0.0 1017835
16 апреля, пт
пт1600:00+20юв357090 0.0 1017634
03:00+20вюв127146 0.0 1016381
06:00+20всв117199 0.1 1017365
09:00+21всв3369100 0.1 1017709
12:00+22св336532 0.0 1017707
15:00+22св446319 0.0 1016740
18:00+22ссв446616 0.0 1017739
21:00+21св34749 0.0 1019587